When you browse on this site, cookies collect data to enhance your experience and personalize the content and advertising you see.
Visit our Privacy Policy to learn more. By continuing to use the site, you agree to this use of cookies and data.
  • In Czech Republic
  • List of Countries
  • For 7 days
  • Water Temperature
  • Weather Map
  • Weather Widgets
  • user-avatar
    Login

    Hourly Weather Salaberry-de-Valleyfield

    Today, 18 January, Saturday

    Time Temperature Precipitation Wind Pressure Humidity
    00:00 -22°C° 0 mm 3 mps 776 mmHg 89%
    01:00 -20°C° 0 mm 2 mps 776 mmHg 89%
    02:00 -20°C° 0 mm 2 mps 776 mmHg 89%
    03:00 -20°C° 0 mm 2 mps 775 mmHg 89%
    04:00 -19°C° 0 mm 2 mps 775 mmHg 89%
    05:00 -17°C° 0 mm 1 mps 774 mmHg 89%
    06:00 -17°C° 0 mm 1 mps 773 mmHg 88%
    07:00 -17°C° 0 mm 0 mps 772 mmHg 87%
    08:00 -16°C° 0 mm 1 mps 771 mmHg 87%
    09:00 -18°C° 0 mm 2 mps 770 mmHg 86%
    10:00 -18°C° 0 mm 3 mps 769 mmHg 86%
    11:00 -18°C° 0 mm 4 mps 768 mmHg 86%
    12:00 -18°C° 0 mm 5 mps 766 mmHg 87%
    13:00 -18°C° 0 mm 5 mps 765 mmHg 87%
    14:00 -18°C° 0 mm 6 mps 763 mmHg 87%
    15:00 -17°C° 0 mm 6 mps 761 mmHg 88%
    16:00 -18°C° 0 mm 7 mps 759 mmHg 88%
    17:00 -17°C° 0.6 mm 6 mps 758 mmHg 90%
    18:00 -17°C° 0.6 mm 6 mps 757 mmHg 92%
    19:00 -17°C° 0.6 mm 5 mps 756 mmHg 95%
    20:00 -17°C° 1.8 mm 6 mps 754 mmHg 94%
    21:00 -17°C° 1.8 mm 6 mps 752 mmHg 94%
    22:00 -16°C° 1.8 mm 6 mps 751 mmHg 94%
    23:00 -16°C° 1.2 mm 6 mps 750 mmHg 94%

    Tomorrow, 19 January, Sunday

    Time Temperature Precipitation Wind Pressure Humidity
    00:00 -16°C° 1.2 mm 6 mps 748 mmHg 94%
    01:00 -15°C° 1.2 mm 6 mps 747 mmHg 94%
    02:00 -15°C° 1.1 mm 6 mps 746 mmHg 95%
    03:00 -14°C° 1.1 mm 6 mps 746 mmHg 95%
    04:00 -12°C° 1.1 mm 6 mps 745 mmHg 95%
    05:00 -13°C° 0.7 mm 5 mps 745 mmHg 95%
    06:00 -13°C° 0.7 mm 5 mps 745 mmHg 95%
    07:00 -14°C° 0.7 mm 4 mps 746 mmHg 95%
    08:00 -14°C° 0.2 mm 4 mps 746 mmHg 94%
    09:00 -14°C° 0.2 mm 4 mps 746 mmHg 94%
    10:00 -13°C° 0.2 mm 3 mps 746 mmHg 93%
    11:00 -13°C° 0.1 mm 3 mps 747 mmHg 92%
    12:00 -12°C° 0.1 mm 3 mps 748 mmHg 91%
    13:00 -9°C° 0.1 mm 2 mps 748 mmHg 89%
    14:00 -9°C° 0.1 mm 2 mps 749 mmHg 91%
    15:00 -8°C° 0.1 mm 1 mps 750 mmHg 93%
    16:00 -8°C° 0.1 mm 1 mps 751 mmHg 94%
    17:00 -9°C° 0.1 mm 1 mps 752 mmHg 94%
    18:00 -10°C° 0.1 mm 2 mps 753 mmHg 93%
    19:00 -12°C° 0.1 mm 2 mps 754 mmHg 93%
    20:00 -13°C° 0.1 mm 2 mps 755 mmHg 90%
    21:00 -14°C° 0.1 mm 2 mps 755 mmHg 88%
    22:00 -15°C° 0.1 mm 2 mps 756 mmHg 86%
    23:00 -16°C° 0 mm 2 mps 756 mmHg 87%

    Day after tomorrow, 20 January, Monday

    Time Temperature Precipitation Wind Pressure Humidity
    00:00 -17°C° 0 mm 2 mps 757 mmHg 87%
    01:00 -18°C° 0 mm 2 mps 757 mmHg 88%
    02:00 -18°C° 0 mm 2 mps 758 mmHg 88%
    03:00 -21°C° 0 mm 3 mps 758 mmHg 89%
    04:00 -21°C° 0 mm 3 mps 759 mmHg 90%
    05:00 -22°C° 0 mm 3 mps 760 mmHg 90%
    06:00 -22°C° 0 mm 3 mps 760 mmHg 91%
    07:00 -23°C° 0 mm 3 mps 761 mmHg 92%
    08:00 -23°C° 0 mm 4 mps 762 mmHg 90%
    09:00 -22°C° 0 mm 4 mps 762 mmHg 89%
    10:00 -21°C° 0 mm 5 mps 762 mmHg 88%
    11:00 -20°C° 0 mm 5 mps 762 mmHg 87%
    12:00 -19°C° 0 mm 5 mps 762 mmHg 86%
    13:00 -18°C° 0 mm 6 mps 762 mmHg 85%
    14:00 -18°C° 0 mm 6 mps 762 mmHg 85%
    15:00 -18°C° 0 mm 6 mps 762 mmHg 85%
    16:00 -18°C° 0 mm 6 mps 761 mmHg 85%
    17:00 -19°C° 0 mm 5 mps 762 mmHg 86%
    18:00 -19°C° 0 mm 5 mps 763 mmHg 86%
    19:00 -20°C° 0 mm 5 mps 763 mmHg 86%
    20:00 -20°C° 0 mm 4 mps 763 mmHg 88%
    21:00 -20°C° 0 mm 4 mps 763 mmHg 90%
    22:00 -21°C° 0 mm 3 mps 764 mmHg 92%
    23:00 -22°C° 0 mm 3 mps 764 mmHg 92%

    21 January, Tuesday

    Time Temperature Precipitation Wind Pressure Humidity
    00:00 -22°C° 0 mm 3 mps 764 mmHg 92%
    01:00 -23°C° 0 mm 3 mps 764 mmHg 92%
    02:00 -23°C° 0 mm 3 mps 765 mmHg 93%
    03:00 -24°C° 0 mm 3 mps 765 mmHg 93%
    04:00 -24°C° 0 mm 3 mps 765 mmHg 93%
    05:00 -25°C° 0 mm 3 mps 765 mmHg 94%
    06:00 -25°C° 0 mm 3 mps 766 mmHg 94%
    07:00 -26°C° 0 mm 3 mps 766 mmHg 94%
    08:00 -24°C° 0 mm 3 mps 766 mmHg 93%
    09:00 -23°C° 0 mm 3 mps 766 mmHg 92%
    10:00 -22°C° 0 mm 3 mps 766 mmHg 91%
    11:00 -20°C° 0 mm 4 mps 766 mmHg 89%
    12:00 -19°C° 0 mm 4 mps 765 mmHg 87%
    13:00 -17°C° 0 mm 4 mps 765 mmHg 85%
    14:00 -17°C° 0 mm 4 mps 765 mmHg 85%
    15:00 -15°C° 0 mm 3 mps 764 mmHg 86%
    16:00 -14°C° 0 mm 3 mps 764 mmHg 86%
    17:00 -15°C° 0 mm 3 mps 764 mmHg 87%
    18:00 -15°C° 0 mm 3 mps 764 mmHg 88%
    19:00 -15°C° 0 mm 3 mps 764 mmHg 89%
    20:00 -13°C° 0.2 mm 3 mps 764 mmHg 91%
    21:00 -12°C° 0.2 mm 3 mps 764 mmHg 93%
    22:00 -10°C° 0.2 mm 3 mps 764 mmHg 95%
    23:00 -9°C° 0.3 mm 3 mps 763 mmHg 94%

    22 January, Wednesday

    Time Temperature Precipitation Wind Pressure Humidity
    00:00 -8°C° 0.3 mm 3 mps 763 mmHg 93%
    01:00 -8°C° 0.3 mm 3 mps 763 mmHg 93%
    02:00 -8°C° 0 mm 4 mps 763 mmHg 92%
    03:00 -8°C° 0 mm 4 mps 763 mmHg 91%
    04:00 -8°C° 0 mm 5 mps 763 mmHg 90%
    05:00 -9°C° 0 mm 4 mps 764 mmHg 90%
    06:00 -10°C° 0 mm 4 mps 764 mmHg 90%
    07:00 -10°C° 0 mm 4 mps 764 mmHg 89%
    08:00 -10°C° 0 mm 5 mps 764 mmHg 89%
    09:00 -8°C° 0 mm 5 mps 764 mmHg 88%
    10:00 -7°C° 0 mm 5 mps 764 mmHg 87%
    11:00 -6°C° 0 mm 5 mps 764 mmHg 87%
    12:00 -5°C° 0 mm 5 mps 764 mmHg 86%
    13:00 -4°C° 0 mm 6 mps 763 mmHg 86%
    14:00 -4°C° 0 mm 5 mps 763 mmHg 86%
    15:00 -4°C° 0 mm 5 mps 764 mmHg 86%
    16:00 -4°C° 0 mm 5 mps 764 mmHg 86%
    17:00 -5°C° 0 mm 5 mps 764 mmHg 86%
    18:00 -5°C° 0 mm 5 mps 764 mmHg 86%
    19:00 -5°C° 0 mm 5 mps 765 mmHg 86%
    20:00 -5°C° 0 mm 5 mps 765 mmHg 87%
    21:00 -6°C° 0 mm 5 mps 765 mmHg 87%
    22:00 -6°C° 0 mm 5 mps 765 mmHg 87%
    23:00 -6°C° 0 mm 5 mps 765 mmHg 88%

    23 January, Thursday

    Time Temperature Precipitation Wind Pressure Humidity
    00:00 -5°C° 0 mm 4 mps 765 mmHg 89%
    01:00 -7°C° 0 mm 4 mps 765 mmHg 90%
    02:00 -5°C° 0 mm 4 mps 765 mmHg 89%
    03:00 -6°C° 0 mm 5 mps 765 mmHg 88%
    04:00 -5°C° 0 mm 5 mps 765 mmHg 88%
    05:00 -6°C° 0 mm 5 mps 765 mmHg 88%
    06:00 -6°C° 0 mm 5 mps 765 mmHg 88%
    07:00 -6°C° 0 mm 5 mps 765 mmHg 88%
    08:00 -5°C° 0 mm 5 mps 765 mmHg 87%
    09:00 -5°C° 0 mm 5 mps 765 mmHg 87%
    10:00 -4°C° 0 mm 6 mps 766 mmHg 86%
    11:00 -4°C° 0 mm 6 mps 765 mmHg 88%
    12:00 -3°C° 0 mm 6 mps 765 mmHg 90%
    13:00 -3°C° 0 mm 6 mps 765 mmHg 91%
    14:00 -3°C° 0.1 mm 6 mps 765 mmHg 91%
    15:00 -2°C° 0.1 mm 5 mps 765 mmHg 90%
    16:00 -2°C° 0.1 mm 5 mps 765 mmHg 90%
    17:00 -2°C° 0 mm 5 mps 765 mmHg 89%
    18:00 -2°C° 0 mm 5 mps 765 mmHg 89%
    19:00 -4°C° 0 mm 5 mps 765 mmHg 88%
    20:00 -4°C° 0 mm 5 mps 765 mmHg 88%
    21:00 -4°C° 0 mm 5 mps 765 mmHg 87%
    22:00 -4°C° 0 mm 5 mps 765 mmHg 87%
    23:00 -5°C° 0 mm 5 mps 765 mmHg 88%
    Show more